Total_Precipitation_Accumulation
0.22 0.20 0.18 0.16 0.15 0.15 0.17 0.20 0.23 0.24 0.19 0.14 0.11 0.08 0.07 0.05 0.03 0.02 0.02 0.01 0.01 0.01 0.01 0.01 0.02 0.03 0.04 0.05 0.07 0.08 0.09 0.10 0.11 0.12 0.13 0.14 0.16 0.18
0.18 0.19 0.19 0.20 0.21 0.22 0.24 0.26 0.29 0.30 0.29 0.22 0.17 0.15 0.14 0.11 0.09 0.06 0.03 0.02 0.01 0.01 0.01 0.02 0.02 0.02 0.03 0.05 0.06 0.07 0.09 0.11 0.14 0.17 0.21 0.24 0.27 0.30
0.13 0.15 0.17 0.18 0.21 0.24 0.27 0.31 0.35 0.39 0.43 0.38 0.31 0.27 0.23 0.18 0.12 0.06 0.03 0.02 0.01 0.01 0.01 0.01 0.01 0.02 0.03 0.05 0.06 0.08 0.10 0.13 0.15 0.18 0.21 0.24 0.26 0.29
0.12 0.14 0.16 0.17 0.20 0.23 0.28 0.33 0.37 0.39 0.40 0.37 0.30 0.24 0.18 0.13 0.08 0.05 0.02 0.02 0.01 0.01 0.00 0.01 0.01 0.02 0.03 0.04 0.06 0.08 0.10 0.11 0.12 0.12 0.14 0.15 0.17 0.19
0.12 0.14 0.16 0.18 0.22 0.26 0.30 0.34 0.35 0.33 0.30 0.25 0.19 0.13 0.10 0.07 0.05 0.03 0.01 0.01 0.00 0.00 0.00 0.00 0.01 0.01 0.02 0.04 0.05 0.05 0.05 0.06 0.06 0.07 0.08 0.09 0.10 0.12
0.16 0.19 0.23 0.28 0.34 0.37 0.37 0.35 0.30 0.24 0.19 0.15 0.13 0.10 0.07 0.04 0.02 0.01 0.00 0.00 0.00 0.00 0.00 0.00 0.00 0.00 0.01 0.01 0.01 0.01 0.02 0.02 0.03 0.05 0.06 0.08 0.10 0.11
0.25 0.30 0.35 0.41 0.42 0.36 0.29 0.22 0.16 0.13 0.13 0.15 0.12 0.07 0.03 0.01 0.01 0.00 0.01 0.01 0.00 0.00 0.00 0.00 0.00 0.00 0.00 0.00 0.00 0.00 0.01 0.02 0.04 0.06 0.09 0.11 0.13 0.14
0.31 0.33 0.34 0.34 0.28 0.23 0.17 0.13 0.11 0.15 0.15 0.11 0.07 0.03 0.01 0.00 0.00 0.01 0.03 0.05 0.03 0.00 0.00 0.00 0.00 0.00 0.00 0.00 0.00 0.00 0.01 0.02 0.04 0.06 0.09 0.11 0.12 0.14
0.32 0.28 0.23 0.18 0.15 0.10 0.09 0.08 0.10 0.09 0.07 0.05 0.03 0.01 0.01 0.01 0.04 0.07 0.07 0.07 0.05 0.00 0.01 0.00 0.00 0.00 0.00 0.00 0.00 0.00 0.01 0.02 0.03 0.05 0.07 0.08 0.10 0.12
0.22 0.16 0.12 0.09 0.06 0.06 0.06 0.06 0.03 0.01 0.00 0.01 0.01 0.01 0.02 0.03 0.05 0.10 0.08 0.05 0.02 0.00 0.00 0.00 0.00 0.00 0.00 0.00 0.00 0.00 0.00 0.01 0.02 0.04 0.05 0.07 0.08 0.10
0.09 0.06 0.04 0.02 0.02 0.04 0.05 0.03 0.01 0.00 0.00 0.00 0.02 0.02 0.02 0.02 0.02 0.02 0.03 0.06 0.05 0.00 0.00 0.00 0.00 0.00 0.00 0.00 0.00 0.00 0.00 0.00 0.01 0.02 0.03 0.04 0.05 0.07
0.01 0.01 0.01 0.01 0.03 0.06 0.05 0.03 0.01 0.00 0.01 0.01 0.00 0.00 0.00 0.00 0.00 0.00 0.03 0.14 0.15 0.08 0.00 0.02 0.03 0.05 0.09 0.01 0.00 0.00 0.00 0.00 0.00 0.00 0.01 0.02 0.04 0.07
0.00 0.00 0.00 0.02 0.04 0.06 0.04 0.02 0.01 0.02 0.02 0.00 0.00 0.00 0.00 0.00 0.00 0.00 0.01 0.13 0.24 0.15 0.01 0.12 0.20 0.10 0.17 0.07 0.00 0.00 0.00 0.00 0.00 0.00 0.00 0.01 0.03 0.08
0.01 0.01 0.01 0.03 0.04 0.02 0.01 0.00 0.01 0.01 0.00 0.00 0.00 0.00 0.00 0.00 0.00 0.00 0.00 0.02 0.08 0.11 0.04 0.16 0.37 0.23 0.26 0.17 0.03 0.00 0.00 0.00 0.00 0.01 0.01 0.02 0.03 0.05
0.01 0.02 0.02 0.02 0.01 0.00 0.00 0.00 0.00 0.00 0.00 0.01 0.01 0.00 0.00 0.00 0.00 0.00 0.00 0.01 0.01 0.01 0.01 0.03 0.17 0.24 0.34 0.30 0.14 0.03 0.01 0.01 0.00 0.03 0.06 0.08 0.07 0.08
0.01 0.01 0.01 0.00 0.00 0.00 0.00 0.00 0.00 0.00 0.00 0.01 0.01 0.00 0.00 0.00 0.00 0.00 0.02 0.02 0.03 0.01 0.00 0.00 0.03 0.17 0.28 0.18 0.16 0.08 0.02 0.04 0.04 0.08 0.10 0.09 0.09 0.12
0.02 0.00 0.00 0.00 0.00 0.00 0.00 0.00 0.00 0.00 0.00 0.01 0.02 0.02 0.01 0.01 0.00 0.00 0.02 0.05 0.07 0.03 0.01 0.00 0.00 0.03 0.08 0.12 0.12 0.04 0.01 0.01 0.04 0.11 0.17 0.17 0.11 0.13
0.01 0.00 0.00 0.00 0.00 0.00 0.00 0.00 0.00 0.00 0.01 0.02 0.03 0.04 0.05 0.04 0.03 0.01 0.02 0.06 0.06 0.04 0.02 0.01 0.03 0.06 0.04 0.01 0.02 0.02 0.03 0.02 0.03 0.07 0.17 0.30 0.18 0.08
0.00 0.00 0.00 0.00 0.00 0.00 0.00 0.01 0.01 0.01 0.02 0.04 0.05 0.06 0.08 0.07 0.05 0.05 0.04 0.06 0.05 0.03 0.02 0.02 0.09 0.28 0.29 0.10 0.01 0.00 0.08 0.16 0.13 0.09 0.13 0.28 0.32 0.19
0.00 0.00 0.00 0.00 0.00 0.01 0.01 0.02 0.02 0.02 0.02 0.03 0.05 0.07 0.10 0.12 0.09 0.07 0.07 0.09 0.11 0.08 0.04 0.01 0.06 0.28 0.53 0.40 0.19 0.02 0.02 0.19 0.40 0.38 0.19 0.13 0.15 0.12
0.00 0.00 0.00 0.00 0.01 0.01 0.02 0.03 0.04 0.04 0.04 0.06 0.06 0.08 0.12 0.16 0.13 0.08 0.09 0.07 0.09 0.10 0.08 0.04 0.02 0.07 0.23 0.35 0.25 0.04 0.00 0.03 0.24 0.56 0.58 0.43 0.21 0.07
0.00 0.00 0.00 0.00 0.01 0.02 0.04 0.04 0.04 0.04 0.05 0.06 0.07 0.09 0.12 0.17 0.18 0.13 0.11 0.12 0.09 0.10 0.10 0.05 0.02 0.05 0.17 0.34 0.26 0.08 0.02 0.00 0.01 0.06 0.26 0.58 0.81 0.62
0.00 0.00 0.00 0.01 0.02 0.03 0.04 0.04 0.04 0.04 0.06 0.09 0.09 0.10 0.14 0.15 0.13 0.12 0.11 0.13 0.16 0.17 0.14 0.09 0.04 0.04 0.07 0.14 0.18 0.12 0.05 0.02 0.02 0.02 0.03 0.08 0.22 0.36